Retour au catalogue

USA 563

ActifMilitaireVLEO
NORAD 65709·PAYLOAD·🇺🇸 United States

Lancé Sep 22, 2025 depuis Vandenberg Space Force Base

Loading…

Prochains Passages (prochaines 24 heures)

TLE

PériméSource: Mike McCants

Époque: Aug 9, 2026, 21:32 UTC

1 65709U 25213F   26221.89765027 0.00000000  00000-0  00000-0 0    00
2 65709  70.0222 252.1310 0003000 170.5749 189.4251 14.96713700    00

Suivez USA 563 en temps réel avec AllMySat

Download on the App Store